Regional Weather Roundup
Issued by NWS

Home | Current Version | Previous Version | Graphics & Text | Print | Product List | Glossary Off
Versions: 1 2 3 4 5 6 7 8 9 10 11 12 13 14 15 16 17 18 19 20 21 22 23 24 25 26 27 28 29 30 31 32 33 34 35 36 37 38 39 40 41 42 43 44 45 46 47 48 49 50

000
ASUS43 KTOP 171259
RWRKS

WEATHER ROUNDUP FOR KANSAS
NATIONAL WEATHER SERVICE GOODLAND KS
800 AM CDT WED SEP 17 2014

NOTE:  "FAIR" INDICATES FEW OR NO CLOUDS BELOW 12,000 FEET WITH NO
SIGNIFICANT WEATHER AND/OR OBSTRUCTIONS TO VISIBILITY.

KSZ001>006-013>018-027>032-041>047-171400-
NORTHWEST KANSAS

CITY           SKY/WX    TMP DP  RH WIND       PRES   REMARKS
GOODLAND       CLEAR     52  49  89 NW6       29.99R
HAYS           MOCLDY    55  52  88 W3        29.91S VSB 1/4
HILL CITY      FOG       56  55  97 W3        29.94R VSB 1/4
RUSSELL        CLEAR     61  60  97 SW7       29.90R FOG
$$

KSZ061>065-074>080-084>089-171400-
SOUTHWEST KANSAS

CITY           SKY/WX    TMP DP  RH WIND       PRES   REMARKS
DODGE CITY     PTCLDY    62  59  90 SW6       29.94S FOG
ELKHART          N/A     60  56  87 SW9         N/A
GARDEN CITY    FOG       55  55 100 W3        29.95R VSB 1/4
GREAT BEND     CLEAR     63  57  82 SW3       29.92R
LIBERAL        PTCLDY    63  55  77 SW9       29.98R
$$

KSZ066>073-081>083-090>101-171400-
SOUTHEAST KANSAS

CITY           SKY/WX    TMP DP  RH WIND       PRES   REMARKS
CHANUTE        MOCLDY    69  68  96 S7        29.92R FOG
COFFEYVILLE    MOCLDY    70  69  97 S7        29.93R FOG
HUTCHINSON     CLOUDY    68  65  90 S8        29.91R FOG
NEWTON         CLOUDY    66  61  82 SW8       29.94R
PARSONS        MOCLDY    70  69  97 S5        29.94R FOG
WICHITA INTL   PTCLDY    68  65  90 SW6       29.91R FOG
WICHITA JABRA  CLEAR     69  66  90 SW9       29.91R
WINFIELD       CLEAR     70  68  93 S14       29.92F
$$

KSZ007>012-019>026-033>040-048>060-102>105-171400-
NORTHEAST KANSAS

CITY           SKY/WX    TMP DP  RH WIND       PRES   REMARKS
CONCORDIA      FOG       65  65 100 NW3       29.90R VSB 1/4
EMPORIA        CLEAR     64  64 100 SW3       29.90R FOG
LAWRENCE       CLOUDY    65  63  93 S3        29.93R FOG
MANHATTAN      CLOUDY    69  66  90 CALM      29.90R FOG
OLATHE IND     CLOUDY    66  65  96 SE3       29.94R FOG
OLATHE EXE     CLOUDY    63  63 100 SE3       29.93R
SALINA         CLEAR     65  63  93 CALM      29.90R FOG
TOPEKA BILLARD CLOUDY    65  65 100 E3        29.92R FOG
TOPEKA FORBES  CLOUDY    64  63  96 E5        29.92R FOG
$$


USA.gov is the U.S. government's official web portal to all federal, state and local government web resources and services.